Jask, Iran

12:57 PM +0430 on May 26, 2018 (GMT +0430)
Jask

Weather History for OIZJ - November, 2012

Change the Weather History Date:

Monday, November 26, 2012

  Actual Average Record
Temperature  
Mean Temperature 76 °F -  
Max Temperature 82 °F - - ()
Min Temperature 71 °F - - ()
Cooling Degree Days 12    
Growing Degree Days 26 (Base 50)    
Moisture  
Dew Point 69 °F    
Average Humidity 74    
Maximum Humidity 94    
Minimum Humidity 61    
Precipitation  
Precipitation 0.00 in - - ()
Sea Level Pressure  
Sea Level Pressure 29.96 in    
Wind  
Wind Speed 4 mph ()    
Max Wind Speed 9 mph    
Max Gust Speed -    
Visibility 4.5 miles    
Events      
T = Trace of Precipitation, MM = Missing Value Source: Averaged Metar Reports

Daily Weather History Graph

Daily Weather History Graph

Search for Another Location

Airport or City:

Astronomy

Nov. 26, 2012 Rise Set
Actual Time 6:04 AM +0330 4:47 PM +0330
Civil Twilight 5:39 AM +0330 5:12 PM +0330
Nautical Twilight 5:11 AM +0330 5:40 PM +0330
Astronomical Twilight 4:43 AM +0330 6:08 PM +0330
Moon 3:18 PM +0330 4:00 AM +0330
Length of Visible Light 11h 32m
Length of Day
10h 43m
Waxing Gibbous, 95% of the Moon is Illuminated
Nov 26
Waxing Gibbous
Nov 28
Full
Dec 6
Last Quarter
Dec 13
New
Dec 20
First Quarter

Hourly Weather History & Observations

Time (+0330) Temp. Heat Index Dew Point Humidity Pressure Visibility Wind Dir Wind Speed Gust Speed Precip Events Conditions
12:20 AM 75.2 °F - 69.8 °F 83% 29.98 in 5.0 mi NNW 9.2 mph - N/A   Unknown
12:30 AM 75.2 °F - 69.8 °F 83% 29.98 in 5.0 mi NNW 9.2 mph - N/A   Unknown
3:20 AM 75.2 °F - 69.8 °F 83% 29.95 in 4.3 mi North 9.2 mph - N/A   Clear
3:30 AM 75 °F - 69 °F 78% 29.96 in 4 mi North 8.9 mph - -   Mist
3:30 AM 75.2 °F - 69.8 °F 83% 29.95 in 4.3 mi North 9.2 mph - N/A   Clear
5:20 AM 71.6 °F - 69.8 °F 94% 29.95 in 4.3 mi Calm Calm - N/A   Clear
5:30 AM 71.6 °F - 69.8 °F 94% 29.95 in 4.3 mi Calm Calm - N/A   Clear
6:20 AM 71.6 °F - 64.4 °F 78% 29.98 in 4.3 mi Calm Calm - N/A   Clear
6:30 AM 71.6 °F - 64.4 °F 78% 29.98 in 4.3 mi Calm Calm - N/A   Clear
7:20 AM 73.4 °F - 66.2 °F 78% 29.98 in 5.0 mi Calm Calm - N/A   Clear
7:30 AM 73.4 °F - 66.2 °F 78% 29.98 in 5.0 mi Calm Calm - N/A   Clear
8:20 AM 77.0 °F - 66.2 °F 69% 30.01 in 5.0 mi Calm Calm - N/A   Clear
8:30 AM 77.0 °F - 66.2 °F 69% 30.01 in 5.0 mi Calm Calm - N/A   Clear
9:20 AM 77.0 °F - 68.0 °F 74% 30.01 in 5.0 mi ESE 9.2 mph - N/A   Clear
9:30 AM 77 °F - 69 °F 68% 30.04 in 5 mi ESE 8.9 mph - -   Haze
9:30 AM 77.0 °F - 68.0 °F 74% 30.01 in 5.0 mi ESE 9.2 mph - N/A   Clear
10:20 AM 78.8 °F - 68.0 °F 69% 30.01 in 5.0 mi SSE 4.6 mph - N/A   Clear
10:30 AM 78.8 °F - 68.0 °F 69% 30.01 in 5.0 mi SSE 4.6 mph - N/A   Clear
11:30 AM 78.8 °F - 68.0 °F 69% 30.01 in 5.0 mi Calm Calm - N/A   Clear
12:20 PM 82.4 °F 86.3 °F 69.8 °F 66% 29.98 in 5.0 mi Calm Calm - N/A   Clear
12:30 PM 82.4 °F 86.3 °F 69.8 °F 66% 29.98 in 5.0 mi Calm Calm - N/A   Clear
1:20 PM 82.4 °F 86.3 °F 69.8 °F 66% 29.95 in 4.3 mi Calm Calm - N/A   Clear
1:30 PM 82.4 °F 86.3 °F 69.8 °F 66% 29.95 in 4.3 mi Calm Calm - N/A   Clear
2:20 PM 82.4 °F 86.3 °F 69.8 °F 66% 29.95 in 4.3 mi SSW 6.9 mph - N/A   Clear
2:30 PM 82.4 °F 86.3 °F 69.8 °F 66% 29.95 in 4.3 mi SSW 6.9 mph - N/A   Clear
3:20 PM 80.6 °F 83.9 °F 69.8 °F 70% 29.92 in 4.3 mi SSW 6.9 mph - N/A   Unknown
3:30 PM 81 °F - 70 °F 61% 29.95 in 4 mi SSW 6.7 mph - -   Haze
3:30 PM 80.6 °F 83.9 °F 69.8 °F 70% 29.92 in 4.3 mi SSW 6.9 mph - N/A   Unknown
4:20 PM 80.6 °F 83.9 °F 69.8 °F 70% 29.92 in 4.3 mi SSW 9.2 mph - N/A   Unknown
4:30 PM 80.6 °F 83.9 °F 69.8 °F 70% 29.92 in 4.3 mi SSW 9.2 mph - N/A   Unknown
5:20 PM 78.8 °F - 69.8 °F 74% 29.92 in 4.3 mi SSE 9.2 mph - N/A   Unknown
5:30 PM 78.8 °F - 69.8 °F 74% 29.92 in 4.3 mi SSE 9.2 mph - N/A   Unknown
6:20 PM 78.8 °F - 69.8 °F 74% 29.92 in 4.3 mi South 6.9 mph - N/A   Unknown
6:30 PM 78.8 °F - 69.8 °F 74% 29.92 in 4.3 mi South 6.9 mph - N/A   Unknown
7:20 PM 78.8 °F - 69.8 °F 74% 29.92 in 4.3 mi Calm Calm - N/A   Clear
7:30 PM 78.8 °F - 69.8 °F 74% 29.92 in 4.3 mi Calm Calm - N/A   Clear
8:20 PM 78.8 °F - 69.8 °F 74% 29.92 in 4.3 mi Calm Calm - N/A   Unknown
8:30 PM 78.8 °F - 69.8 °F 74% 29.92 in 4.3 mi Calm Calm - N/A   Unknown
9:20 PM 77.0 °F - 69.8 °F 78% 29.92 in 4.3 mi Calm Calm - N/A   Unknown
9:30 PM 78 °F - 69 °F 67% 29.95 in 4 mi Calm Calm - -   Haze
9:30 PM 77.0 °F - 69.8 °F 78% 29.92 in 4.3 mi Calm Calm - N/A   Unknown